User: anonymous   Login
Location: ????????
(38.4362°N, 22.8767°E)
Time: 21:08:33
(UTC+00:00)
Language:

Cosmos 1048 Rocket - Orbit

View from above orbital plane
View from above orbital plane
View from above satellite
View from above satellite

Ground track
Ground track

The orbit data is extracted from the following two-line orbital elements,

1 11112U 78105B   24165.39702484  .00000440  00000-0  15327-3 0  9991
2 11112  74.0287 147.2620 0032433  40.7850 319.5723 14.38020340386324
Epoch (UTC): 13 June 2024 09:31:42
Eccentricity: 0.0032433
inclination: 74.0287°
perigee height: 742 km
apogee height: 788 km
right ascension of ascending node: 147.2620°
argument of perigee: 40.7850°
revolutions per day: 14.38020340
mean anomaly at epoch: 319.5723°
orbit number at epoch: 38632

The dashed part of the orbit path shows where the satellite is in the earth's shadow,  

DLR